• In Czech Republic
  • List of Countries
  • For 7 days
  • Water Temperature
  • Satellite Maps
  • Weather Map
  • Weather Widgets
  • user-avatar
    Login

    Hourly Weather Lommel

    Today, 24 October, Tuesday

    Time Temperature Precipitation Wind Pressure Humidity
    00:00 +12°C° 0.1 mm 4 mps 761 mmHg 91%
    01:00 +12°C° 0.1 mm 4 mps 761 mmHg 91%
    02:00 +12°C° 0.1 mm 4 mps 761 mmHg 92%
    03:00 +12°C° 0.1 mm 4 mps 761 mmHg 92%
    04:00 +12°C° 0 mm 4 mps 761 mmHg 93%
    05:00 +13°C° 0 mm 4 mps 761 mmHg 93%
    06:00 +13°C° 0 mm 4 mps 761 mmHg 93%
    07:00 +13°C° 0 mm 4 mps 761 mmHg 92%
    08:00 +14°C° 0 mm 5 mps 761 mmHg 91%
    09:00 +14°C° 0 mm 5 mps 761 mmHg 91%
    10:00 +14°C° 0.1 mm 5 mps 761 mmHg 90%
    11:00 +15°C° 0.1 mm 5 mps 761 mmHg 90%
    12:00 +15°C° 0.1 mm 5 mps 761 mmHg 90%
    13:00 +15°C° 0.1 mm 5 mps 761 mmHg 90%
    14:00 +16°C° 0.1 mm 5 mps 761 mmHg 90%
    15:00 +17°C° 0.1 mm 4 mps 761 mmHg 91%
    16:00 +17°C° 0 mm 4 mps 761 mmHg 92%
    17:00 +15°C° 0 mm 4 mps 761 mmHg 92%
    18:00 +15°C° 0 mm 4 mps 761 mmHg 93%
    19:00 +15°C° 0 mm 4 mps 761 mmHg 93%
    20:00 +15°C° 0 mm 4 mps 761 mmHg 93%
    21:00 +15°C° 0 mm 4 mps 762 mmHg 93%
    22:00 +14°C° 0 mm 4 mps 761 mmHg 93%
    23:00 +14°C° 0 mm 4 mps 761 mmHg 93%

    Tomorrow, 25 October, Wednesday

    Time Temperature Precipitation Wind Pressure Humidity
    00:00 +14°C° 0 mm 5 mps 761 mmHg 93%
    01:00 +14°C° 0 mm 5 mps 761 mmHg 93%
    02:00 +14°C° 0 mm 5 mps 761 mmHg 92%
    03:00 +14°C° 0 mm 5 mps 761 mmHg 92%
    04:00 +14°C° 0 mm 5 mps 761 mmHg 92%
    05:00 +14°C° 0 mm 5 mps 761 mmHg 92%
    06:00 +14°C° 0 mm 5 mps 761 mmHg 92%
    07:00 +14°C° 0 mm 5 mps 761 mmHg 89%
    08:00 +15°C° 0 mm 6 mps 761 mmHg 86%
    09:00 +15°C° 0 mm 6 mps 761 mmHg 83%
    10:00 +16°C° 0 mm 5 mps 762 mmHg 81%
    11:00 +16°C° 0 mm 5 mps 762 mmHg 79%
    12:00 +18°C° 0 mm 4 mps 762 mmHg 77%
    13:00 +17°C° 0 mm 4 mps 762 mmHg 78%
    14:00 +17°C° 0 mm 4 mps 762 mmHg 79%
    15:00 +17°C° 0 mm 3 mps 762 mmHg 80%
    16:00 +17°C° 0 mm 3 mps 763 mmHg 83%
    17:00 +16°C° 0 mm 3 mps 763 mmHg 86%
    18:00 +15°C° 0 mm 2 mps 763 mmHg 89%
    19:00 +15°C° 0 mm 2 mps 763 mmHg 90%
    20:00 +15°C° 0 mm 2 mps 764 mmHg 91%
    21:00 +14°C° 0 mm 2 mps 764 mmHg 91%
    22:00 +14°C° 0 mm 2 mps 764 mmHg 92%
    23:00 +14°C° 0 mm 2 mps 764 mmHg 92%

    Day after tomorrow, 26 October, Thursday

    Time Temperature Precipitation Wind Pressure Humidity
    00:00 +14°C° 0 mm 2 mps 764 mmHg 92%
    01:00 +13°C° 0 mm 2 mps 763 mmHg 93%
    02:00 +13°C° 0 mm 2 mps 763 mmHg 93%
    03:00 +13°C° 0 mm 2 mps 763 mmHg 93%
    04:00 +13°C° 0 mm 2 mps 763 mmHg 93%
    05:00 +13°C° 0 mm 2 mps 763 mmHg 93%
    06:00 +12°C° 0 mm 2 mps 763 mmHg 93%
    07:00 +12°C° 0 mm 3 mps 763 mmHg 90%
    08:00 +13°C° 0 mm 3 mps 763 mmHg 87%
    09:00 +16°C° 0 mm 3 mps 763 mmHg 83%
    10:00 +17°C° 0 mm 3 mps 763 mmHg 79%
    11:00 +18°C° 0 mm 3 mps 763 mmHg 74%
    12:00 +19°C° 0 mm 3 mps 763 mmHg 70%
    13:00 +19°C° 0 mm 3 mps 763 mmHg 71%
    14:00 +19°C° 0 mm 3 mps 762 mmHg 72%
    15:00 +18°C° 0 mm 3 mps 762 mmHg 72%
    16:00 +17°C° 0 mm 2 mps 762 mmHg 77%
    17:00 +16°C° 0 mm 2 mps 762 mmHg 81%
    18:00 +15°C° 0 mm 2 mps 762 mmHg 85%
    19:00 +15°C° 0 mm 2 mps 762 mmHg 87%
    20:00 +15°C° 0 mm 2 mps 762 mmHg 89%
    21:00 +14°C° 0 mm 2 mps 762 mmHg 91%
    22:00 +14°C° 0.1 mm 2 mps 762 mmHg 92%
    23:00 +14°C° 0.1 mm 2 mps 762 mmHg 92%

    27 October, Friday

    Time Temperature Precipitation Wind Pressure Humidity
    00:00 +13°C° 0.1 mm 3 mps 762 mmHg 93%
    01:00 +13°C° 0.1 mm 3 mps 761 mmHg 94%
    02:00 +13°C° 0.1 mm 3 mps 761 mmHg 94%
    03:00 +12°C° 0.1 mm 4 mps 761 mmHg 95%
    04:00 +12°C° 0.5 mm 4 mps 761 mmHg 94%
    05:00 +12°C° 0.5 mm 4 mps 760 mmHg 93%
    06:00 +13°C° 0.5 mm 4 mps 760 mmHg 92%
    07:00 +12°C° 0.6 mm 4 mps 761 mmHg 89%
    08:00 +12°C° 0.6 mm 4 mps 761 mmHg 87%
    09:00 +12°C° 0.6 mm 5 mps 761 mmHg 84%
    10:00 +13°C° 0.1 mm 5 mps 761 mmHg 78%
    11:00 +13°C° 0.1 mm 5 mps 761 mmHg 73%
    12:00 +14°C° 0.1 mm 6 mps 762 mmHg 67%
    13:00 +13°C° 0.1 mm 6 mps 762 mmHg 67%
    14:00 +13°C° 0.1 mm 5 mps 762 mmHg 68%
    15:00 +13°C° 0.1 mm 5 mps 762 mmHg 68%
    16:00 +12°C° 0 mm 4 mps 762 mmHg 72%
    17:00 +11°C° 0 mm 4 mps 763 mmHg 75%
    18:00 +10°C° 0 mm 3 mps 763 mmHg 79%
    19:00 +9°C° 0 mm 3 mps 763 mmHg 81%
    20:00 +9°C° 0 mm 3 mps 763 mmHg 82%
    21:00 +9°C° 0 mm 3 mps 763 mmHg 84%
    22:00 +9°C° 0 mm 3 mps 763 mmHg 83%
    23:00 +9°C° 0 mm 3 mps 762 mmHg 81%

    28 October, Saturday

    Time Temperature Precipitation Wind Pressure Humidity
    00:00 +8°C° 0 mm 4 mps 762 mmHg 80%
    01:00 +8°C° 0 mm 4 mps 761 mmHg 79%
    02:00 +8°C° 0 mm 5 mps 760 mmHg 79%
    03:00 +8°C° 0 mm 5 mps 760 mmHg 79%
    04:00 +8°C° 0 mm 5 mps 759 mmHg 79%
    05:00 +8°C° 0 mm 6 mps 758 mmHg 79%
    06:00 +8°C° 0 mm 6 mps 757 mmHg 80%
    07:00 +9°C° 0 mm 6 mps 756 mmHg 75%
    08:00 +10°C° 0 mm 6 mps 756 mmHg 71%
    09:00 +10°C° 0 mm 7 mps 755 mmHg 67%
    10:00 +11°C° 0.1 mm 7 mps 754 mmHg 68%
    11:00 +11°C° 0.1 mm 7 mps 753 mmHg 69%
    12:00 +11°C° 0.1 mm 7 mps 752 mmHg 70%
    13:00 +11°C° 0.4 mm 7 mps 751 mmHg 73%
    14:00 +10°C° 0.4 mm 7 mps 750 mmHg 75%
    15:00 +10°C° 0.4 mm 7 mps 749 mmHg 78%
    16:00 +9°C° 0.5 mm 7 mps 749 mmHg 76%
    17:00 +9°C° 0.5 mm 8 mps 749 mmHg 74%
    18:00 +7°C° 0.5 mm 8 mps 749 mmHg 73%
    19:00 +8°C° 0.2 mm 7 mps 749 mmHg 74%
    20:00 +6°C° 0.2 mm 7 mps 749 mmHg 74%
    21:00 +7°C° 0.2 mm 6 mps 750 mmHg 75%
    22:00 +7°C° 0.2 mm 6 mps 750 mmHg 76%
    23:00 +7°C° 0.2 mm 6 mps 749 mmHg 76%

    29 October, Sunday

    Time Temperature Precipitation Wind Pressure Humidity
    00:00 +7°C° 0.2 mm 6 mps 749 mmHg 77%
    01:00 +6°C° 0.3 mm 7 mps 749 mmHg 77%
    02:00 +6°C° 0.3 mm 7 mps 749 mmHg 78%
    03:00 +8°C° 0.3 mm 7 mps 749 mmHg 78%
    04:00 +8°C° 0.1 mm 7 mps 750 mmHg 78%
    05:00 +8°C° 0.1 mm 7 mps 750 mmHg 78%
    06:00 +8°C° 0.1 mm 6 mps 750 mmHg 77%
    07:00 +8°C° 0.1 mm 7 mps 751 mmHg 77%
    08:00 +9°C° 0.1 mm 7 mps 752 mmHg 76%
    09:00 +10°C° 0.1 mm 7 mps 753 mmHg 75%
    10:00 +10°C° 0.3 mm 7 mps 753 mmHg 74%
    11:00 +11°C° 0.3 mm 8 mps 754 mmHg 72%
    12:00 +11°C° 0.3 mm 8 mps 755 mmHg 70%
    13:00 +11°C° 0.2 mm 7 mps 755 mmHg 70%
    14:00 +10°C° 0.2 mm 7 mps 756 mmHg 70%
    15:00 +10°C° 0.2 mm 6 mps 757 mmHg 71%
    16:00 +9°C° 0 mm 6 mps 757 mmHg 72%
    17:00 +9°C° 0 mm 5 mps 758 mmHg 73%
    18:00 +8°C° 0 mm 4 mps 759 mmHg 75%
    19:00 +8°C° 0 mm 4 mps 759 mmHg 76%
    20:00 +8°C° 0 mm 3 mps 760 mmHg 77%
    21:00 +8°C° 0 mm 3 mps 760 mmHg 78%
    22:00 +8°C° 0 mm 3 mps 760 mmHg 79%
    23:00 +8°C° 0 mm 3 mps 760 mmHg 80%

    30 October, Monday

    Time Temperature Precipitation Wind Pressure Humidity
    00:00 +8°C° 0 mm 3 mps 760 mmHg 81%
    01:00 +8°C° 0 mm 3 mps 760 mmHg 82%
    02:00 +8°C° 0 mm 3 mps 760 mmHg 83%
    03:00 +8°C° 0 mm 3 mps 760 mmHg 84%
    04:00 +6°C° 0 mm 4 mps 760 mmHg 84%
    05:00 +6°C° 0 mm 4 mps 760 mmHg 84%
    06:00 +6°C° 0 mm 4 mps 760 mmHg 84%
    07:00 +6°C° 0 mm 4 mps 760 mmHg 82%
    08:00 +7°C° 0 mm 5 mps 759 mmHg 80%
    09:00 +7°C° 0 mm 5 mps 759 mmHg 79%
    10:00 +8°C° 0.1 mm 5 mps 759 mmHg 81%
    11:00 +8°C° 0.1 mm 5 mps 759 mmHg 83%
    12:00 +8°C° 0.1 mm 5 mps 759 mmHg 85%
    13:00 +9°C° 0.1 mm 5 mps 759 mmHg 85%
    14:00 +10°C° 0.1 mm 4 mps 758 mmHg 84%
    15:00 +11°C° 0.1 mm 4 mps 758 mmHg 84%
    16:00 +11°C° 0.1 mm 4 mps 759 mmHg 86%
    17:00 +10°C° 0.1 mm 4 mps 759 mmHg 88%
    18:00 +10°C° 0.1 mm 4 mps 759 mmHg 89%
    19:00 +10°C° 0.2 mm 4 mps 759 mmHg 90%
    20:00 +10°C° 0.2 mm 4 mps 759 mmHg 90%
    21:00 +10°C° 0.2 mm 4 mps 760 mmHg 91%
    22:00 +10°C° 0.1 mm 3 mps 760 mmHg 91%
    23:00 +9°C° 0.1 mm 3 mps 760 mmHg 92%
    Show more